Weather History for Sarasota, FL

Change the Weather History Date:

Saturday, December 29, 2012

  Actual Average Record
Temperature  
Mean Temperature 66 °F 62 °F  
Max Temperature 74 °F 71 °F 85 °F (1990)
Min Temperature 57 °F 52 °F 31 °F (2010)
Degree Days  
Heating Degree Days 0 5  
Month to date heating degree days 57 110  
Since 1 July heating degree days 98 143  
Cooling Degree Days 1 2  
Month to date cooling degree days 93 72  
Year to date cooling degree days 3817 3372  
Growing Degree Days 15 (Base 50)    
Moisture  
Dew Point 65 °F    
Average Humidity 88    
Maximum Humidity 100    
Minimum Humidity 67    
Precipitation  
Precipitation 0.04 in 0.06 in 1.60 in (1942)
Month to date precipitation 1.75 2.40  
Year to date precipitation 45.79 52.88  
Sea Level Pressure  
Sea Level Pressure 29.97 in    
Wind  
Wind Speed 15 mph (WSW)    
Max Wind Speed 23 mph    
Max Gust Speed 31 mph    
Visibility 7 miles    
Events Fog , Rain    
T = Trace of Precipitation, MM = Missing Value Source: NWS Daily Summary

Daily Weather History Graph

Daily Weather History Graph

Search for Another Location

Airport:

Trip Planner

Search our weather history database for the weather conditions in past years. The results will help you decide how hot, cold, wet, or windy it might be!

Date:

Astronomy

Dec. 29, 2012 Rise Set
Actual Time 7:19 AM EST 5:45 PM EST
Civil Twilight 6:54 AM EST 6:11 PM EST
Nautical Twilight 6:24 AM EST 6:40 PM EST
Astronomical Twilight 5:56 AM EST 7:08 PM EST
Moon 7:08 PM EST (12/29) 7:59 AM EST (12/29)
Length of Visible Light 11h 17m
Length of Day
10h 26m
Full, 98% of the Moon is Illuminated
Dec 29
Full
Jan 4
Last Quarter
Jan 11
New
Jan 18
First Quarter
Jan 26
Full

Hourly Weather History & Observations

Time (EST) Temp. Dew Point Humidity Pressure Visibility Wind Dir Wind Speed Gust Speed Precip Events Conditions
12:53 AM 69.1 °F 68.0 °F 96% 29.91 in 10.0 mi SSE 13.8 mph - 0.00 in   Mostly Cloudy
1:10 AM 69.8 °F 68.0 °F 94% 29.90 in 10.0 mi South 16.1 mph - N/A   Overcast
1:53 AM 71.1 °F 69.1 °F 93% 29.89 in 10.0 mi South 18.4 mph 25.3 mph 0.00 in   Partly Cloudy
2:05 AM 71.6 °F 69.8 °F 94% 29.89 in 10.0 mi South 16.1 mph 24.2 mph N/A   Partly Cloudy
2:26 AM 71.6 °F 69.8 °F 94% 29.88 in 10.0 mi South 20.7 mph 28.8 mph N/A   Mostly Cloudy
2:53 AM 70.0 °F 69.1 °F 97% 29.88 in 8.0 mi South 20.7 mph 28.8 mph N/A   Overcast
3:53 AM 70.0 °F 69.1 °F 97% 29.87 in 8.0 mi South 17.3 mph 27.6 mph N/A   Overcast
4:18 AM 69.8 °F 69.8 °F 100% 29.88 in 2.5 mi South 20.7 mph 26.5 mph N/A   Overcast
4:36 AM 69.8 °F 69.8 °F 100% 29.89 in 5.0 mi South 17.3 mph 27.6 mph N/A   Overcast
4:53 AM 70.0 °F 69.1 °F 97% 29.89 in 5.0 mi South 17.3 mph 27.6 mph N/A   Overcast
5:19 AM 69.8 °F 69.8 °F 100% 29.90 in 1.8 mi South 16.1 mph 24.2 mph N/A   Overcast
5:39 AM 69.8 °F 69.8 °F 100% 29.91 in 0.5 mi South 16.1 mph - N/A Fog Fog
5:53 AM 70.0 °F 69.1 °F 97% 29.91 in 0.5 mi South 12.7 mph - N/A Fog Fog
6:53 AM 70.0 °F 70.0 °F 100% 29.93 in 0.5 mi South 13.8 mph - 0.00 in Fog Fog
7:09 AM 69.8 °F 69.8 °F 100% 29.94 in 1.0 mi SSW 12.7 mph - N/A   Mist
7:28 AM 69.8 °F 69.8 °F 100% 29.95 in 3.0 mi SSW 13.8 mph - 0.00 in Rain Light Rain
7:49 AM 71.6 °F 69.8 °F 94% 29.96 in 5.0 mi SSW 15.0 mph - 0.00 in   Overcast
7:53 AM 71.1 °F 70.0 °F 96% 29.96 in 5.0 mi SSW 13.8 mph - 0.00 in   Overcast
8:53 AM 70.0 °F 69.1 °F 97% 29.98 in 4.0 mi SW 8.1 mph - 0.04 in Rain Light Rain
9:14 AM 69.8 °F 69.8 °F 100% 29.98 in 7.0 mi SW 8.1 mph - 0.00 in   Overcast
9:25 AM 69.8 °F 69.8 °F 100% 29.99 in 5.0 mi SW 6.9 mph - 0.00 in Rain Light Rain
9:53 AM 70.0 °F 69.1 °F 97% 30.00 in 5.0 mi WNW 8.1 mph - 0.00 in   Overcast
10:53 AM 71.1 °F 70.0 °F 96% 29.99 in 4.0 mi SW 10.4 mph - 0.00 in   Overcast
11:03 AM 71.6 °F 69.8 °F 94% 29.99 in 4.0 mi WSW 10.4 mph - N/A   Overcast
11:10 AM 71.6 °F 69.8 °F 94% 29.99 in 4.0 mi West 9.2 mph - N/A   Overcast
11:53 AM 71.1 °F 69.1 °F 93% 29.99 in 8.0 mi WNW 11.5 mph - N/A   Overcast
12:00 PM 71.6 °F 69.8 °F 94% 29.99 in 9.0 mi WNW 12.7 mph - N/A   Overcast
12:53 PM 72.0 °F 64.9 °F 78% 29.97 in 10.0 mi NW 17.3 mph - N/A   Overcast
1:15 PM 73.4 °F 64.4 °F 73% 29.96 in 10.0 mi NW 18.4 mph 26.5 mph N/A   Mostly Cloudy
1:53 PM 73.9 °F 64.0 °F 71% 29.96 in 10.0 mi NW 20.7 mph 26.5 mph N/A   Clear
2:26 PM 71.6 °F 62.6 °F 73% 29.96 in 10.0 mi NNW 15.0 mph 29.9 mph N/A   Mostly Cloudy
2:53 PM 71.1 °F 62.1 °F 73% 29.97 in 10.0 mi NW 18.4 mph 26.5 mph N/A   Overcast
3:53 PM 66.9 °F 59.0 °F 76% 29.99 in 10.0 mi NNW 16.1 mph 25.3 mph N/A   Scattered Clouds
4:01 PM 66.2 °F 59.0 °F 78% 29.99 in 10.0 mi NNW 17.3 mph 25.3 mph N/A   Mostly Cloudy
4:53 PM 64.0 °F 57.0 °F 78% 30.01 in 10.0 mi NW 15.0 mph 24.2 mph N/A   Mostly Cloudy
5:51 PM 62.6 °F 55.4 °F 77% 30.03 in 10.0 mi NNW 12.7 mph 23.0 mph N/A   Scattered Clouds
5:53 PM 62.1 °F 55.0 °F 78% 30.04 in 10.0 mi NNW 16.1 mph 24.2 mph N/A   Scattered Clouds
6:53 PM 61.0 °F 53.1 °F 75% 30.06 in 10.0 mi NW 13.8 mph 25.3 mph N/A   Scattered Clouds
7:53 PM 59.0 °F 51.1 °F 75% 30.09 in 10.0 mi NW 17.3 mph 23.0 mph N/A   Clear
8:53 PM 59.0 °F 48.9 °F 69% 30.12 in 10.0 mi NW 13.8 mph 24.2 mph N/A   Clear
9:53 PM 57.9 °F 48.9 °F 72% 30.14 in 10.0 mi NW 16.1 mph 24.2 mph N/A   Clear
10:53 PM 57.9 °F 46.9 °F 67% 30.16 in 10.0 mi NNW 13.8 mph 21.9 mph N/A   Clear
11:53 PM 57.9 °F 46.9 °F 67% 30.16 in 10.0 mi NNW 12.7 mph - N/A   Clear